2020-085D (46932 NORAD) Tracking and Keplerian Element Data

This shows tracking and keplerian element data for the satellite.

Feedback or suggestion? Click here.




ElementValue
Catalog46932
Name2020-085D
Epoch Orbit456
Epoch Day355.13022216
Epoch Year2020
RAAN129.1086
Inclination97.3652
Eccentricity0.001605
Argument of Perigee184.2186
Mean Anonmoly224.9248
Mean Motion15.21264416
Decay Rate1.773E-05
L11 46932U 20085D 20355.13022216 .00001773 00000-0 82208-4 0 9993
L22 46932 97.3652 129.1086 0016050 184.2186 224.9248 15.21264416 4565



Live tracking and technical data element details for 2020-085D (NORAD 46932). 2020-085D can be tracked NOW for your location showing map with azimuth and elevation plus other details from your city location.







IsCatalogInMostPopularTable: catalog: 46932, numindb: 119
Update: records affected: 1



GetName: 46932 2020-085D

Hit Count: updated at: Sun, 28 May 2023 07:41:42 GMT